This demonstration page uses our WeatherBlox Daily Observations layout. Learn more.

Left ArrowRight Arrow

39.92423, -83.80882

Hourly Observations for November 11, 2020

Temp ( °F °C ) Dew Point ( °F °C ) Humidity (%) Winds ( mph kmh ) Pressure ( in mb ) Visibility ( mi km ) Precip ( " mm )
12:56 am 00:56 Cloudy with Rain 64 17.8 64 17.8 100 100 SSW 10 17 29.83 1010 3 5 N/A
1:56 am 01:56 Cloudy with Light Rain 65 18.3 65 18.3 100 100 SSW 9 15 29.83 1010 6 10 N/A
2:05 am 02:05 Cloudy with Light Rain 64 18 64 18 100 100 SSW 7 11 29.83 1010 10 16 N/A
2:40 am 02:40 Cloudy with Light Rain 64 18 64 18 100 100 SSW 7 11 29.82 1010 10 16 N/A
2:56 am 02:56 Cloudy 65 18.3 65 18.3 100 100 S 7 11 29.83 1010 10 16 N/A
3:06 am 03:06 Cloudy 64 18 64 18 100 100 SSW 6 9 29.83 1010 10 16 N/A
3:13 am 03:13 Cloudy with Light Rain 61 16 61 16 100 100 NW 20 31 29.86 1011 8 13 N/A
3:24 am 03:24 Cloudy with Light Rain 55 13 55 13 100 100 WNW 15 24 29.88 1012 5 8 N/A
3:56 am 03:56 Cloudy with Light Rain 55 12.8 54 12.2 96 96 NW 10 17 29.88 1012 9 14 N/A
4:56 am 04:56 Cloudy 54 12.2 53 11.7 97 97 W 5 7 29.89 1012 10 16 N/A
5:56 am 05:56 Cloudy with Light Rain 53 11.7 53 11.7 100 100 WSW 3 6 29.91 1013 10 16 N/A
6:56 am 06:56 Cloudy 53 11.7 53 11.7 100 100 N N/A 29.92 1013 10 16 N/A
7:56 am 07:56 Cloudy 53 11.7 52 11.1 96 96 W 9 15 29.95 1014 10 16 N/A
8:56 am 08:56 Cloudy 54 12.2 53 11.7 97 97 WNW 8 13 29.95 1014 10 16 N/A
9:18 am 09:18 Cloudy 54 12 52 11 94 94 WNW 10 17 29.97 1015 10 16 N/A
9:32 am 09:32 Cloudy 52 11 48 9 88 88 WNW 9 15 29.99 1015 10 16 N/A
9:56 am 09:56 Cloudy 53 11.7 51 10.6 93 93 WNW 9 15 29.98 1015 10 16 N/A
10:27 am 10:27 Cloudy 54 12 50 10 88 88 WNW 13 20 29.98 1015 10 16 N/A
10:56 am 10:56 Cloudy 52 11.1 44 6.7 75 75 NW 12 19 30.00 1016 10 16 N/A
11:23 am 11:23 Cloudy 55 13 48 9 77 77 WNW 10 17 30.00 1016 10 16 N/A
11:56 am 11:56 Cloudy 53 11.7 48 8.9 83 83 WNW 12 19 30.00 1016 10 16 N/A
12:56 pm 12:56 Cloudy 54 12.2 47 8.3 77 77 NW 12 19 29.99 1016 10 16 N/A
1:56 pm 13:56 Cloudy 53 11.7 45 7.2 74 74 NW 9 15 30.00 1016 10 16 N/A
2:56 pm 14:56 Mostly Sunny 53 11.7 43 6.1 69 69 NW 12 19 30.00 1016 10 16 N/A
3:56 pm 15:56 Sunny 52 11.1 39 3.9 61 61 NW 10 17 30.03 1017 10 16 N/A
4:56 pm 16:56 Sunny 50 10 40 4.4 68 68 NW 8 13 30.05 1018 10 16 N/A
5:56 pm 17:56 Clear 45 7.2 40 4.4 83 83 NW 7 11 30.06 1018 10 16 N/A
6:56 pm 18:56 Clear 43 6.1 39 3.9 86 86 NNW 10 17 30.09 1019 10 16 N/A
7:56 pm 19:56 Clear 39 3.9 38 3.3 96 96 NNW 9 15 30.12 1020 10 16 N/A
8:56 pm 20:56 Clear 37 2.8 37 2.8 100 100 NNW 7 11 30.13 1020 10 16 N/A
9:56 pm 21:56 Clear 35 1.7 35 1.7 100 100 NNW 7 11 30.14 1021 10 16 N/A
10:56 pm 22:56 Clear 34 1.1 34 1.1 100 100 NNW 5 7 30.15 1021 10 16 N/A
11:56 pm 23:56 Clear 33 0.6 33 0.6 100 100 NNW 5 7 30.14 1021 8 13 N/A

Powered by AerisWeather